TimeAKDT,TemperatureF,Dew PointF,Humidity,Sea Level PressureIn,VisibilityMPH,Wind Direction,Wind SpeedMPH,Gust SpeedMPH,PrecipitationIn,Events,Conditions,WindDirDegrees,DateUTC
12:53 AM,50.0,46.0,86,29.47,10.0,North,4.6,-,0.01,Rain,Light Rain,360,2013-09-07 08:53:00
1:53 AM,48.9,46.0,90,29.49,10.0,Calm,Calm,-,0.00,,Overcast,0,2013-09-07 09:53:00
2:53 AM,48.0,44.1,86,29.50,10.0,NNE,3.5,-,N/A,,Overcast,30,2013-09-07 10:53:00
3:53 AM,46.0,43.0,89,29.53,10.0,SSW,3.5,-,N/A,,Mostly Cloudy,200,2013-09-07 11:53:00
4:53 AM,46.0,43.0,89,29.54,10.0,Calm,Calm,-,N/A,,Overcast,0,2013-09-07 12:53:00
5:46 AM,45.0,42.1,90,29.55,10.0,South,5.8,-,N/A,,Overcast,180,2013-09-07 13:46:00
5:53 AM,45.0,42.1,90,29.57,10.0,South,4.6,-,N/A,,Overcast,190,2013-09-07 13:53:00
6:10 AM,44.1,42.1,93,29.55,10.0,Calm,Calm,-,0.00,Rain,Light Rain,0,2013-09-07 14:10:00
6:45 AM,43.0,41.0,93,29.56,0.8,East,4.6,-,0.00,,Mist,90,2013-09-07 14:45:00
6:53 AM,43.0,41.0,93,29.58,0.8,East,3.5,-,0.00,,Mist,100,2013-09-07 14:53:00
7:17 AM,43.0,41.0,93,29.57,0.2,Calm,Calm,-,N/A,Fog,Fog,0,2013-09-07 15:17:00
7:53 AM,43.0,42.1,97,29.60,0.2,Calm,Calm,-,N/A,Fog,Fog,0,2013-09-07 15:53:00
8:53 AM,43.0,41.0,93,29.62,0.2,Calm,Calm,-,N/A,Fog,Fog,0,2013-09-07 16:53:00
9:30 AM,44.1,42.1,93,29.62,0.2,ESE,3.5,-,N/A,Fog,Fog,110,2013-09-07 17:30:00
9:53 AM,44.1,42.1,93,29.65,0.2,Calm,Calm,-,N/A,Fog,Fog,0,2013-09-07 17:53:00
10:36 AM,44.1,42.1,93,29.64,0.5,Calm,Calm,-,0.00,Fog,Fog,0,2013-09-07 18:36:00
10:49 AM,44.6,42.8,93,29.64,1.5,North,3.5,-,0.00,,Overcast,350,2013-09-07 18:49:00
10:53 AM,45.0,42.1,90,29.66,1.5,Calm,Calm,-,0.00,,Overcast,0,2013-09-07 18:53:00
11:00 AM,45.0,42.1,90,29.64,2.5,Calm,Calm,-,N/A,,Overcast,0,2013-09-07 19:00:00
11:53 AM,46.0,43.0,89,29.67,2.5,Calm,Calm,-,N/A,,Overcast,0,2013-09-07 19:53:00
12:53 PM,46.9,44.1,90,29.68,2.5,Calm,Calm,-,N/A,,Overcast,0,2013-09-07 20:53:00
12:57 PM,48.0,44.1,86,29.66,2.5,Calm,Calm,-,N/A,,Overcast,0,2013-09-07 20:57:00
1:20 PM,48.0,44.1,86,29.66,4.0,Calm,Calm,-,N/A,,Overcast,0,2013-09-07 21:20:00
1:23 PM,48.0,44.1,86,29.66,4.0,Calm,Calm,-,N/A,,Overcast,0,2013-09-07 21:23:00
1:53 PM,48.9,45.0,86,29.68,6.0,South,3.5,-,N/A,,Mostly Cloudy,190,2013-09-07 21:53:00
2:53 PM,52.0,46.0,80,29.68,8.0,Calm,Calm,-,N/A,,Mostly Cloudy,0,2013-09-07 22:53:00
3:53 PM,54.0,46.0,75,29.67,10.0,WSW,3.5,-,N/A,Fog,Overcast,240,2013-09-07 23:53:00
4:53 PM,54.0,46.9,77,29.65,10.0,WSW,4.6,-,N/A,,Mostly Cloudy,250,2013-09-08 00:53:00
5:53 PM,54.0,48.0,80,29.64,10.0,Calm,Calm,-,N/A,,Mostly Cloudy,0,2013-09-08 01:53:00
6:53 PM,53.1,48.0,83,29.62,10.0,WSW,3.5,-,N/A,,Mostly Cloudy,250,2013-09-08 02:53:00
7:53 PM,53.1,48.9,86,29.62,10.0,SSW,3.5,-,N/A,,Mostly Cloudy,200,2013-09-08 03:53:00
8:53 PM,52.0,48.0,86,29.62,10.0,WSW,3.5,-,N/A,Fog,Mostly Cloudy,250,2013-09-08 04:53:00
9:53 PM,51.1,48.0,89,29.60,10.0,Calm,Calm,-,N/A,,Mostly Cloudy,0,2013-09-08 05:53:00
10:53 PM,48.9,46.0,90,29.57,10.0,Calm,Calm,-,N/A,,Mostly Cloudy,0,2013-09-08 06:53:00
11:53 PM,48.9,46.0,90,29.55,10.0,Calm,Calm,-,N/A,,Mostly Cloudy,0,2013-09-08 07:53:00